1504926000.66,50810,14.63,73510.0,3.79,-24.51,-24.51,0,*7C
1504926001.94,50811,14.63,73484.8,3.79,-24.15,-24.21,0,*7A
1504926003.2,50812,14.63,73452.3,3.79,-23.75,-23.85,0,*71
1504926004.47,50813,14.63,73472.5,3.79,-23.85,-23.99,0,*72
1504926005.75,50814,14.63,73490.5,3.79,-24.21,-24.21,0,*78
1504926006.98,50815,14.63,73506.0,3.79,-24.31,-24.31,0,*79
1504926008.24,50816,14.63,73506.5,3.79,-24.41,-24.31,0,*7D
1504926009.43,50817,14.63,73498.8,3.81,-24.35,-24.35,0,*7C
1504926010.68,50818,14.63,73490.5,3.81,-24.15,-24.11,0,*77
1504926011.93,50819,14.63,73496.3,3.79,-24.31,-24.41,0,*72
1504926013.18,50820,14.63,73512.5,3.81,-24.25,-24.15,0,*7B
1504926014.41,50821,14.63,73494.5,3.81,-24.31,-24.25,0,*7C
1504926015.61,50822,14.63,73500.3,3.81,-24.35,-24.47,0,*7F
1504926016.86,50823,14.63,73506.0,3.79,-24.57,-24.67,0,*7F
1504926018.09,50824,14.63,73490.8,3.79,-24.51,-24.51,0,*7B
1504926019.29,50825,14.63,73502.3,3.81,-24.35,-24.47,0,*78
1504926020.55,50826,14.63,73504.0,3.79,-24.31,-24.21,0,*78
1504926021.8,50827,14.63,73506.0,3.79,-24.31,-24.15,0,*7E
1504926023.06,50828,14.63,73502.0,3.79,-24.41,-24.31,0,*70
1504926024.29,50829,14.63,73510.0,3.79,-24.51,-24.57,0,*70
1504926025.49,50830,14.63,73506.3,3.81,-24.51,-24.51,0,*79
1504926026.77,50831,14.63,73506.5,3.79,-24.71,-24.67,0,*78
1504926028.05,50832,14.63,73514.0,3.79,-24.71,-24.67,0,*7B
1504926029.25,50833,14.63,73504.5,3.81,-24.61,-24.61,0,*7A
1504926030.53,50834,14.63,73506.3,3.79,-24.67,-24.71,0,*7D
1504926031.75,50835,14.63,73502.8,3.81,-24.61,-24.67,0,*7A
1504926032.97,50836,14.63,73502.3,3.79,-24.57,-24.57,0,*78
1504926034.2,50837,14.63,73500.0,3.79,-24.51,-24.57,0,*7F
1504926035.43,50838,14.63,73492.3,3.81,-24.31,-24.25,0,*74
1504926036.68,50839,14.63,73488.3,3.81,-24.21,-24.15,0,*77
1504926037.88,50840,14.63,73480.3,3.81,-24.31,-24.35,0,*7A
1504926039.13,50841,14.63,73478.5,3.79,-24.57,-24.71,0,*7C
1504926040.42,50842,14.63,73478.8,3.79,-24.71,-24.87,0,*72
1504926041.7,50843,14.63,73482.0,3.79,-24.83,-24.83,0,*7A
1504926042.97,50844,14.63,73484.8,3.79,-24.87,-24.87,0,*7D
1504926044.19,50845,14.63,73482.5,3.81,-24.87,-24.97,0,*7A
1504926045.39,50846,14.63,73484.8,3.81,-24.77,-24.93,0,*72
1504926046.63,50847,14.63,73498.0,3.79,-24.87,-24.97,0,*7F
1504926047.88,50848,14.63,73500.5,3.79,-24.97,-25.03,0,*7D
1504926049.13,50849,14.63,73504.3,3.79,-25.03,-25.19,0,*7B
1504926050.35,50850,14.63,73498.5,3.79,-24.97,-24.97,0,*78
1504926051.6,50851,14.63,73484.8,3.79,-25.03,-25.13,0,*78
1504926052.82,50852,14.63,73464.3,3.77,-25.03,-25.19,0,*7F
1504926054.02,50853,14.63,73462.5,3.77,-24.97,-25.13,0,*78
1504926055.27,50854,14.63,73488.0,3.77,-24.83,-24.87,0,*76
1504926056.49,50855,14.63,73496.3,3.77,-24.57,-24.67,0,*70
1504926057.72,50856,14.63,73506.5,3.77,-24.51,-24.41,0,*71
1504926058.92,50857,14.63,73502.3,3.77,-24.57,-24.57,0,*71
1504926060.15,50858,14.63,73504.8,3.79,-24.51,-24.57,0,*76
1504926061.42,50859,14.63,73520.5,3.79,-24.87,-24.87,0,*71
1504926062.69,50860,14.63,73486.0,3.79,-24.67,-24.83,0,*71
1504926063.95,50861,14.63,73476.8,3.77,-24.71,-24.71,0,*74
1504926065.17,50862,14.63,73476.8,3.77,-24.87,-24.97,0,*76
1504926066.43,50863,14.63,73472.8,3.77,-24.71,-24.87,0,*7F
1504926067.68,50864,14.63,73460.5,3.77,-24.67,-24.71,0,*76
1504926068.89,50865,14.63,73466.0,3.77,-24.51,-24.51,0,*70
1504926070.14,50866,14.63,73486.3,3.77,-24.41,-24.41,0,*73
1504926071.38,50867,14.63,73496.3,3.77,-24.67,-24.67,0,*72
1504926072.64,50868,14.63,73492.3,3.77,-24.67,-24.71,0,*7A
1504926073.86,50869,14.63,73468.0,3.75,-24.77,-24.93,0,*74
1504926075.1,50870,14.63,73476.8,3.77,-24.87,-24.87,0,*74
1504926076.33,50871,14.63,73470.8,3.77,-24.87,-24.97,0,*74
1504926077.58,50872,14.63,73466.0,3.77,-24.83,-24.83,0,*76
1504926078.79,50873,14.63,73472.0,3.75,-24.93,-24.93,0,*75
1504926080.03,50874,14.63,73492.5,3.75,-24.67,-24.61,0,*74
1504926081.29,50875,14.63,73502.3,3.75,-24.71,-24.61,0,*72
1504926082.52,50876,14.63,73490.5,3.75,-24.77,-24.77,0,*70
1504926083.78,50877,14.63,73488.5,3.77,-24.71,-24.71,0,*73
1504926085.04,50878,14.63,73480.5,3.77,-24.71,-24.83,0,*71
1504926086.29,50879,14.63,73476.3,3.77,-24.71,-24.83,0,*70
1504926087.52,50880,14.63,73482.3,3.75,-24.47,-24.35,0,*7C
1504926088.72,50881,14.63,73508.8,3.77,-24.51,-24.57,0,*7C
1504926089.95,50882,14.63,73508.0,3.75,-24.61,-24.61,0,*7B
1504926091.2,50883,14.63,73506.0,3.75,-24.61,-24.71,0,*7B
1504926092.42,50884,14.63,73522.3,3.75,-24.61,-24.57,0,*78
1504926093.64,50885,14.63,73514.3,3.75,-24.47,-24.35,0,*79
1504926094.91,50886,14.63,73504.0,3.75,-23.95,-23.95,0,*7F
1504926096.19,50887,14.63,73494.3,3.75,-24.21,-24.21,0,*7E
1504926097.42,50888,14.63,73490.5,3.75,-24.47,-24.35,0,*74
1504926098.7,50889,14.63,73480.3,3.75,-24.25,-24.21,0,*74
1504926099.94,50890,14.63,73490.5,3.77,-24.31,-24.21,0,*7B
1504926101.15,50891,14.63,73492.5,3.75,-23.89,-23.89,0,*79
1504926102.38,50892,14.63,73484.8,3.77,-24.05,-23.99,0,*7A
1504926103.6,50893,14.63,73488.8,3.77,-24.15,-24.05,0,*78
1504926104.82,50894,14.63,73432.3,3.77,-23.89,-23.99,0,*7F
1504926106.04,50895,14.63,73436.0,3.77,-23.85,-23.75,0,*70
1504926107.29,50896,14.63,73452.3,3.81,-24.21,-24.11,0,*76
1504926108.56,50897,14.63,73468.3,3.79,-24.21,-24.15,0,*74
1504926109.82,50898,14.63,73470.5,3.79,-24.31,-24.21,0,*7D
1504926111.07,50899,14.63,73456.3,3.79,-24.57,-24.67,0,*7E
1504926112.36,50900,14.63,73460.0,3.79,-24.71,-24.71,0,*7C
1504926113.6,50901,14.63,73452.5,3.79,-24.67,-24.57,0,*7E
1504926114.83,50902,14.63,73448.3,3.79,-24.57,-24.57,0,*7E
1504926116.08,50903,14.63,73462.3,3.79,-24.51,-24.67,0,*7A
1504926117.28,50904,14.63,73472.5,3.77,-24.51,-24.51,0,*76
1504926118.54,50905,14.63,73464.3,3.79,-24.35,-24.41,0,*7A
1504926119.77,50906,14.63,73480.3,3.79,-24.51,-24.51,0,*7A
1504926121.01,50907,14.63,73484.0,3.79,-24.57,-24.67,0,*78
1504926122.26,50908,14.63,73472.3,3.79,-24.57,-24.67,0,*77
1504926123.53,50909,14.63,73478.8,3.79,-24.67,-24.67,0,*75
1504926124.75,50910,14.63,73480.0,3.79,-24.57,-24.57,0,*7D
1504926126.03,50911,14.63,73462.3,3.79,-24.67,-24.71,0,*7B
1504926127.3,50912,14.63,73466.5,3.79,-24.67,-24.71,0,*78
1504926128.53,50913,14.63,73468.8,3.79,-24.57,-24.51,0,*78
1504926129.78,50914,14.63,73478.5,3.79,-24.57,-24.71,0,*7D
1504926131.03,50915,14.63,73482.3,3.81,-24.67,-24.67,0,*7F
1504926132.31,50916,14.63,73488.0,3.79,-24.71,-24.71,0,*7B
1504926133.6,50917,14.63,73494.3,3.79,-24.71,-24.87,0,*73
1504926134.85,50918,14.63,73488.8,3.79,-24.83,-24.97,0,*70
1504926136.07,50919,14.63,73482.8,3.81,-24.77,-24.83,0,*78
1504926137.32,50920,14.63,73490.8,3.79,-24.83,-24.97,0,*7B
1504926138.58,50921,14.63,73488.5,3.79,-24.83,-24.97,0,*7A
1504926139.85,50922,14.63,73490.8,3.79,-24.83,-24.83,0,*7C
1504926141.1,50923,14.63,73494.5,3.77,-24.83,-24.83,0,*73
1504926142.35,50924,14.63,73484.0,3.77,-24.67,-24.83,0,*7E
1504926143.61,50925,14.63,73488.0,3.77,-24.71,-24.83,0,*78
1504926144.86,50926,14.63,73486.0,3.77,-24.83,-24.87,0,*72
1504926146.06,50927,14.63,73474.8,3.77,-24.51,-24.57,0,*71
1504926147.31,50928,14.63,73482.0,3.75,-24.61,-24.71,0,*7B
1504926148.51,50929,14.63,73482.8,3.77,-24.77,-24.93,0,*73
1504926149.73,50930,14.63,73484.0,3.77,-24.67,-24.57,0,*72
1504926150.93,50931,14.63,73482.3,3.77,-24.57,-24.57,0,*70
1504926152.18,50932,14.63,73472.0,3.77,-24.41,-24.41,0,*73
1504926153.41,50933,14.63,73470.5,3.77,-24.51,-24.41,0,*73
1504926154.64,50934,14.63,73498.0,3.77,-24.57,-24.71,0,*71
1504926155.9,50935,14.63,73502.3,3.77,-24.71,-24.87,0,*7D
1504926157.1,50936,14.63,73484.3,3.77,-24.57,-24.51,0,*71
1504926158.38,50937,14.63,73498.8,3.75,-24.71,-24.71,0,*74
1504926159.61,50938,14.63,73488.8,3.77,-24.57,-24.71,0,*7D
1504926160.83,50939,14.63,73490.3,3.77,-24.57,-24.67,0,*7B
1504926162.08,50940,14.63,73484.3,3.75,-24.61,-24.71,0,*75
1504926163.33,50941,14.63,73494.0,3.77,-24.67,-24.71,0,*70
1504926164.58,50942,14.63,73494.5,3.77,-24.67,-24.67,0,*74
1504926165.83,50943,14.63,73488.0,3.77,-24.83,-24.87,0,*71
1504926167.11,50944,14.63,73480.3,3.75,-24.71,-24.87,0,*79
1504926168.4,50945,14.63,73484.5,3.75,-24.71,-24.71,0,*71
1504926169.62,50946,14.63,73484.5,3.75,-24.61,-24.61,0,*72
1504926170.82,50947,14.63,73494.0,3.77,-24.51,-24.57,0,*77
1504926172.05,50948,14.63,73478.5,3.75,-24.47,-24.47,0,*7C
1504926173.27,50949,14.63,73466.5,3.77,-24.57,-24.67,0,*7C
1504926174.53,50950,14.63,73460.8,3.75,-24.71,-24.77,0,*73
1504926175.79,50951,14.63,73480.8,3.77,-24.71,-24.83,0,*7B
1504926177.01,50952,14.63,73478.0,3.75,-24.57,-24.57,0,*77
1504926178.21,50953,14.63,73472.3,3.77,-24.57,-24.51,0,*72
1504926179.44,50954,14.63,73480.0,3.75,-24.47,-24.47,0,*71
1504926180.66,50955,14.63,73474.8,3.75,-24.57,-24.51,0,*76
1504926181.89,50956,14.63,73478.8,3.77,-24.35,-24.21,0,*74
1504926183.09,50957,14.63,73480.0,3.77,-24.35,-24.31,0,*74
1504926184.32,50958,14.63,73484.0,3.77,-24.41,-24.31,0,*78
1504926185.52,50959,14.63,73498.8,3.77,-24.51,-24.57,0,*78
1504926186.72,50960,14.63,73490.5,3.77,-24.61,-24.61,0,*74
1504926187.98,50961,14.63,73500.0,3.77,-24.41,-24.21,0,*73
1504926189.21,50962,14.63,73492.3,3.77,-24.51,-24.41,0,*77
1504926190.41,50963,14.63,73496.0,3.77,-24.57,-24.57,0,*77
1504926191.66,50964,14.63,73486.5,3.77,-24.41,-24.41,0,*70
1504926192.9,50965,14.63,73484.5,3.77,-24.67,-24.67,0,*71
1504926194.11,50966,14.63,73492.0,3.77,-24.51,-24.57,0,*74
1504926195.31,50967,14.63,73498.0,3.77,-24.57,-24.57,0,*73
1504926196.56,50968,14.63,73496.8,3.79,-24.51,-24.41,0,*73
1504926197.84,50969,14.63,73496.5,3.79,-24.41,-24.41,0,*73
1504926199.06,50970,14.63,73502.8,3.79,-24.57,-24.57,0,*7B
1504926200.32,50971,14.63,73506.0,3.77,-24.71,-24.83,0,*79
1504926201.56,50972,14.63,73496.0,3.77,-24.67,-24.67,0,*77
1504926202.79,50973,14.63,73502.3,3.77,-24.41,-24.51,0,*77
1504926203.99,50974,14.63,73504.5,3.77,-24.57,-24.51,0,*77
1504926205.2,50975,14.63,73498.8,3.77,-24.51,-24.51,0,*70
1504926206.42,50976,14.63,73496.5,3.77,-24.41,-24.51,0,*72
1504926207.65,50977,14.56,73486.3,3.79,-24.51,-24.57,0,*7A
1504926208.9,50978,14.63,73484.3,3.77,-24.67,-24.71,0,*7A
1504926210.15,50979,14.56,73484.5,3.77,-24.67,-24.71,0,*7B
1504926211.4,50980,14.63,73480.5,3.77,-24.67,-24.67,0,*7A
1504926212.66,50981,14.63,73478.5,3.77,-24.71,-24.83,0,*76
1504926213.91,50982,14.63,73484.0,3.77,-24.71,-24.83,0,*75
1504926215.17,50983,14.63,73494.5,3.77,-24.71,-24.87,0,*70
1504926216.41,50984,14.63,73490.0,3.77,-24.67,-24.67,0,*7E
1504926217.67,50985,14.63,73480.3,3.77,-24.71,-24.67,0,*78
1504926218.93,50986,14.63,73480.3,3.77,-24.71,-24.87,0,*75
1504926220.18,50987,14.63,73484.0,3.77,-24.83,-24.83,0,*7D
1504926221.4,50988,14.63,73482.8,3.77,-24.87,-24.97,0,*73
1504926222.66,50989,14.63,73486.8,3.77,-24.71,-24.87,0,*7A
1504926223.87,50990,14.63,73484.0,3.77,-24.93,-25.03,0,*73
1504926225.12,50991,14.63,73486.5,3.75,-24.77,-24.87,0,*77
1504926226.38,50992,14.63,73484.0,3.75,-24.71,-24.77,0,*7D
1504926227.64,50993,14.63,73490.3,3.75,-24.71,-24.77,0,*7C
1504926228.88,50994,14.63,73486.8,3.75,-24.87,-24.93,0,*78
1504926230.1,50995,14.63,73480.5,3.77,-24.87,-24.93,0,*7B
1504926231.34,50996,14.63,73478.3,3.75,-24.87,-24.93,0,*7A
1504926232.59,50997,14.63,73472.8,3.75,-24.77,-24.87,0,*71
1504926233.85,50998,14.63,73470.8,3.75,-24.71,-24.77,0,*77
1504926235.08,50999,14.63,73472.0,3.75,-24.77,-24.77,0,*70
1504926236.36,51000,14.63,73476.0,3.75,-24.71,-24.71,0,*78
1504926237.58,51001,14.63,73482.0,3.75,-24.77,-24.93,0,*73
1504926238.81,51002,14.63,73488.3,3.77,-24.83,-24.97,0,*7D
1504926240.06,51003,14.63,73490.8,3.75,-24.77,-24.87,0,*74
1504926241.28,51004,14.63,73488.3,3.75,-24.77,-24.93,0,*76
1504926242.53,51005,14.63,73486.0,3.77,-24.67,-24.83,0,*75
1504926243.81,51006,14.63,73470.3,3.75,-24.71,-24.71,0,*7E
1504926245.09,51007,14.63,73466.3,3.75,-24.71,-24.87,0,*76
1504926246.34,51008,14.63,73466.8,3.75,-24.87,-24.93,0,*75
1504926247.55,51009,14.63,73468.5,3.75,-24.93,-25.09,0,*73
1504926248.77,51010,14.63,73476.8,3.75,-24.93,-25.19,0,*7A
1504926249.98,51011,14.63,73490.3,3.75,-24.93,-25.19,0,*7B
1504926251.23,51012,14.63,73490.3,3.75,-25.03,-25.23,0,*79
1504926252.43,51013,14.63,73494.3,3.73,-24.77,-24.93,0,*76
1504926253.65,51014,14.63,73496.8,3.71,-24.93,-25.09,0,*7B
1504926254.87,51015,14.63,73500.8,3.71,-24.97,-25.13,0,*75
1504926256.06,51016,14.63,73502.3,3.73,-24.93,-25.19,0,*7A
1504926257.31,51017,14.63,73502.3,3.71,-25.09,-25.29,0,*78
1504926258.54,51018,14.63,73492.8,3.71,-25.09,-25.13,0,*7E
1504926259.76,51019,14.63,73492.5,3.71,-24.97,-25.13,0,*79
1504926260.98,51020,14.56,73488.3,3.71,-25.09,-25.23,0,*76
1504926262.2,51021,14.56,73482.3,3.71,-24.93,-25.09,0,*7D
1504926263.42,51022,14.63,73482.8,3.71,-24.93,-25.09,0,*7E
1504926264.65,51023,14.56,73484.8,3.71,-24.77,-24.97,0,*73
1504926265.93,51024,14.56,73496.3,3.67,-24.83,-24.87,0,*79
1504926267.21,51025,14.63,73488.8,3.67,-24.87,-25.03,0,*71
1504926268.49,51026,14.63,73442.0,3.67,-24.71,-24.87,0,*76
1504926269.75,51027,14.56,73440.5,3.67,-24.83,-24.97,0,*7B
1504926271.04,51028,14.63,73478.0,3.67,-24.71,-24.71,0,*71
1504926272.27,51029,14.56,73450.0,3.67,-24.35,-24.57,0,*74
1504926273.55,51030,14.63,73462.0,3.67,-24.15,-24.21,0,*7F
1504926274.83,51031,14.63,73450.5,3.67,-23.85,-23.99,0,*74
1504926276.09,51032,14.63,73450.8,3.71,-23.85,-23.95,0,*7C
1504926277.35,51033,14.63,73466.3,3.71,-24.41,-24.31,0,*7B
1504926278.63,51034,14.63,73476.8,3.71,-24.25,-24.25,0,*7B
1504926279.9,51035,14.63,73452.8,3.71,-23.69,-23.69,0,*7A
1504926281.12,51036,14.63,73450.3,3.73,-23.89,-23.95,0,*76
1504926282.36,51037,14.63,73442.0,3.73,-23.95,-24.11,0,*71
1504926283.62,51038,14.63,73446.5,3.71,-24.31,-24.41,0,*70
1504926284.87,51039,14.63,73430.8,3.73,-24.11,-24.25,0,*73
1504926286.13,51040,14.56,73430.3,3.73,-24.21,-24.25,0,*7E
1504926287.33,51041,14.56,73434.5,3.73,-24.61,-24.61,0,*7B
1504926288.57,51042,14.63,73444.8,3.71,-24.47,-24.51,0,*7D
1504926289.77,51043,14.63,73454.0,3.73,-24.47,-24.57,0,*78
1504926290.98,51044,14.63,73472.3,3.73,-24.57,-24.61,0,*7B
1504926292.18,51045,14.56,73450.0,3.73,-24.57,-24.77,0,*7D
1504926293.38,51046,14.56,73466.3,3.73,-24.61,-24.61,0,*7C
1504926294.59,51047,14.63,73490.3,3.73,-24.47,-24.47,0,*7D
1504926295.82,51048,14.56,73502.8,3.73,-24.41,-24.57,0,*75
1504926297.03,51049,14.63,73496.8,3.73,-24.47,-24.61,0,*77
1504926298.23,51050,14.63,73488.5,3.73,-24.61,-24.77,0,*7C
1504926299.46,51051,14.63,73480.5,3.73,-24.61,-24.87,0,*72
1504926300.71,51052,14.63,73488.8,3.71,-24.61,-24.83,0,*77
1504926301.96,51053,14.63,73502.3,3.71,-24.67,-24.93,0,*71
1504926303.23,51054,14.63,73494.3,3.71,-24.67,-24.83,0,*77
1504926304.47,51055,14.63,73484.8,3.71,-24.51,-24.61,0,*7F
1504926305.72,51056,14.56,73466.3,3.71,-24.47,-24.67,0,*7D
1504926306.95,51057,14.56,73470.0,3.73,-24.57,-24.83,0,*75
1504926308.18,51058,14.63,73478.8,3.73,-24.61,-24.71,0,*72
1504926309.43,51059,14.63,73470.0,3.71,-24.67,-24.77,0,*71
1504926310.66,51060,14.56,73474.8,3.71,-24.61,-24.77,0,*7D
1504926311.88,51061,14.63,73472.8,3.71,-24.61,-24.61,0,*7B
1504926313.12,51062,14.56,73474.0,3.71,-24.47,-24.61,0,*7C
1504926314.37,51063,14.56,73476.5,3.71,-24.41,-24.51,0,*78
1504926315.62,51064,14.63,73464.5,3.71,-24.67,-24.77,0,*7F
1504926316.85,51065,14.63,73478.0,3.71,-24.61,-24.77,0,*78
1504926318.08,51066,14.56,73504.0,3.71,-24.51,-24.61,0,*7F
1504926319.31,51067,14.56,73480.5,3.71,-24.51,-24.61,0,*7E
1504926320.52,51068,14.63,73446.8,3.73,-24.47,-24.51,0,*77
1504926321.75,51069,14.63,73456.3,3.71,-24.61,-24.61,0,*73
1504926322.98,51070,14.63,73462.5,3.71,-24.51,-24.61,0,*78
1504926324.21,51071,14.63,73452.8,3.71,-24.47,-24.51,0,*7D
1504926325.44,51072,14.56,73452.0,3.71,-24.51,-24.61,0,*7A
1504926326.7,51073,14.63,73474.8,3.71,-24.47,-24.41,0,*7E
1504926327.93,51074,14.63,73474.0,3.73,-24.41,-24.47,0,*7B
1504926329.14,51075,14.56,73460.0,3.73,-24.35,-24.47,0,*79
1504926330.34,51076,14.63,73472.0,3.73,-24.35,-24.35,0,*7F
1504926331.62,51077,14.56,73478.5,3.71,-24.41,-24.41,0,*7C
1504926332.85,51078,14.63,73478.8,3.73,-24.41,-24.35,0,*72
1504926334.05,51079,14.63,73486.5,3.73,-24.35,-24.35,0,*70
1504926335.3,51080,14.63,73484.3,3.71,-24.41,-24.31,0,*73
1504926336.56,51081,14.63,73476.5,3.73,-24.25,-24.21,0,*73
1504926337.82,51082,14.63,73486.5,3.71,-24.41,-24.51,0,*77
1504926339.05,51083,14.63,73486.5,3.71,-24.47,-24.61,0,*73
1504926340.28,51084,14.63,73490.5,3.71,-24.51,-24.51,0,*70
1504926341.49,51085,14.56,73478.3,3.73,-24.61,-24.61,0,*73
1504926342.74,51086,14.63,73492.8,3.71,-24.67,-24.77,0,*73
1504926343.97,51087,14.56,73484.5,3.71,-24.61,-24.77,0,*74
1504926345.2,51088,14.63,73486.8,3.71,-24.47,-24.31,0,*7D
1504926346.45,51089,14.63,73492.3,3.71,-24.67,-24.77,0,*7C
1504926347.7,51090,14.63,73506.8,3.71,-24.67,-24.77,0,*74
1504926348.95,51091,14.56,73478.0,3.71,-24.67,-24.77,0,*75
1504926350.18,51092,14.56,73498.0,3.71,-24.47,-24.31,0,*76
1504926351.44,51093,14.63,73484.0,3.71,-24.41,-24.31,0,*71
1504926352.67,51094,14.63,73474.8,3.71,-24.51,-24.51,0,*71
1504926353.9,51095,14.56,73472.3,3.71,-24.47,-24.51,0,*77
1504926355.13,51096,14.63,73482.8,3.71,-24.47,-24.51,0,*74
1504926356.38,51097,14.63,73476.3,3.71,-24.61,-24.67,0,*74
1504926357.65,51098,14.63,73462.8,3.71,-24.67,-24.67,0,*7D
1504926358.87,51099,14.56,73472.8,3.71,-24.61,-24.61,0,*7C
1504926360.11,51100,14.63,73480.8,3.71,-24.51,-24.61,0,*7E
1504926361.34,51101,14.63,73476.8,3.71,-24.51,-24.61,0,*7F
1504926362.62,51102,14.63,73476.5,3.67,-24.67,-24.71,0,*7F
1504926363.87,51103,14.63,73466.8,3.71,-24.61,-24.67,0,*78
1504926365.11,51104,14.56,73484.5,3.71,-24.61,-24.67,0,*7F
1504926366.41,51105,14.63,73496.5,3.67,-24.71,-24.71,0,*7F
1504926367.66,51106,14.56,73458.0,3.71,-24.31,-24.25,0,*7E
1504926368.94,51107,14.56,73464.0,3.71,-24.25,-24.15,0,*79
1504926370.19,51108,14.63,73462.8,3.71,-24.41,-24.61,0,*77
1504926371.42,51109,14.63,73468.8,3.71,-24.61,-24.77,0,*73
1504926372.67,51110,14.56,73476.0,3.71,-24.67,-24.61,0,*7A
1504926373.92,51111,14.63,73468.5,3.71,-24.67,-24.77,0,*7C
1504926375.16,51112,14.56,73478.5,3.71,-24.51,-24.61,0,*7D
1504926376.41,51113,14.63,73474.5,3.71,-24.47,-24.41,0,*79
1504926377.64,51114,14.63,73468.0,3.71,-24.61,-24.61,0,*78
1504926378.87,51115,14.56,73468.3,3.71,-24.31,-24.31,0,*79
1504926380.12,51116,14.63,73478.8,3.73,-24.21,-24.11,0,*7B
1504926381.4,51117,14.56,73494.8,3.71,-24.41,-24.41,0,*7B
1504926382.66,51118,14.56,73488.3,3.71,-24.41,-24.51,0,*75
1504926383.89,51119,14.56,73488.5,3.71,-24.47,-24.51,0,*72
1504926385.12,51120,14.63,73496.5,3.71,-24.31,-24.31,0,*7F
1504926386.4,51121,14.56,73476.3,3.71,-24.25,-24.25,0,*7E
1504926387.66,51122,14.56,73466.8,3.71,-24.31,-24.41,0,*7A
1504926388.89,51123,14.56,73448.3,3.71,-24.47,-24.51,0,*7B
1504926390.12,51124,14.63,73436.8,3.71,-24.51,-24.61,0,*78
1504926391.38,51125,14.56,73500.0,3.71,-24.47,-24.41,0,*7C
1504926392.66,51126,14.56,73504.5,3.71,-24.41,-24.41,0,*79
1504926393.89,51127,14.56,73466.8,3.71,-24.47,-24.51,0,*7F
1504926395.12,51128,14.56,73470.8,3.71,-24.61,-24.61,0,*77
1504926396.34,51129,14.56,73490.8,3.71,-24.61,-24.61,0,*76
1504926397.57,51130,14.56,73504.5,3.71,-24.47,-24.61,0,*7A
1504926398.83,51131,14.63,73500.3,3.71,-24.31,-24.25,0,*7A
1504926400.11,51132,14.56,73492.3,3.71,-24.41,-24.25,0,*7E
1504926401.34,51133,14.63,73480.3,3.73,-24.41,-24.35,0,*7C
1504926402.6,51134,14.56,73468.5,3.71,-24.41,-24.31,0,*7D
1504926403.87,51135,14.56,73470.3,3.71,-24.25,-24.15,0,*78
1504926405.15,51136,14.56,73464.5,3.71,-24.11,-23.99,0,*7F
1504926406.4,51137,14.63,73472.5,3.73,-24.41,-24.25,0,*79
1504926407.69,51138,14.56,73502.0,3.71,-24.25,-24.25,0,*76
1504926408.89,51139,14.56,73488.8,3.73,-24.05,-24.05,0,*75
1504926410.12,51140,14.56,73474.0,3.73,-24.05,-24.11,0,*7E
1504926411.38,51141,14.56,73470.3,3.73,-24.25,-24.25,0,*7A
1504926412.63,51142,14.63,73478.3,3.73,-24.11,-24.21,0,*7A
1504926413.87,51143,14.63,73474.3,3.73,-24.41,-24.47,0,*7E
1504926415.12,51144,14.56,73460.8,3.73,-24.41,-24.25,0,*7D
1504926416.36,51145,14.56,73454.5,3.73,-24.41,-24.47,0,*78
1504926417.59,51146,14.63,73456.0,3.73,-24.41,-24.47,0,*7B
1504926418.82,51147,14.56,73456.3,3.73,-24.25,-24.47,0,*78
1504926420.05,51148,14.56,73464.5,3.71,-24.31,-24.51,0,*77
1504926421.26,51149,14.56,73460.8,3.73,-24.47,-24.57,0,*73
1504926422.47,51150,14.56,73456.8,3.73,-24.47,-24.47,0,*7A
1504926423.67,51151,14.56,73462.5,3.73,-24.57,-24.61,0,*7E
1504926424.9,51152,14.56,73478.3,3.73,-24.67,-24.93,0,*73
1504926426.13,51153,14.56,73458.3,3.73,-24.61,-24.71,0,*78
1504926427.37,51154,14.63,73472.8,3.71,-24.61,-24.67,0,*7A
1504926428.61,51155,14.56,73458.8,3.73,-24.41,-24.47,0,*79
1504926429.84,51156,14.56,73464.5,3.73,-24.41,-24.47,0,*7A
1504926431.05,51157,14.56,73466.8,3.73,-24.47,-24.47,0,*7D
1504926432.27,51158,14.56,73454.8,3.73,-24.41,-24.35,0,*71
1504926433.48,51159,14.63,73480.0,3.73,-24.35,-24.47,0,*76
1504926434.71,51160,14.56,73484.8,3.73,-24.57,-24.71,0,*7D
1504926435.94,51161,14.56,73460.0,3.71,-24.51,-24.61,0,*79
1504926437.14,51162,14.56,73478.8,3.73,-24.61,-24.57,0,*7E
1504926438.37,51163,14.56,73452.5,3.71,-24.47,-24.51,0,*7F
1504926439.64,51164,14.63,73454.8,3.73,-24.25,-24.25,0,*7D
1504926440.85,51165,14.56,73462.0,3.73,-24.47,-24.47,0,*7C
1504926442.05,51166,14.56,73468.8,3.73,-24.57,-24.61,0,*7A
1504926443.25,51167,14.56,73470.5,3.73,-24.57,-24.57,0,*7E
1504926444.52,51168,14.56,73472.0,3.71,-24.67,-24.67,0,*73
1504926445.72,51169,14.56,73462.5,3.73,-24.57,-24.61,0,*75
1504926446.97,51170,14.56,73466.8,3.71,-24.61,-24.67,0,*7C
1504926448.17,51171,14.56,73460.3,3.73,-24.57,-24.57,0,*79
1504926449.37,51172,14.56,73452.5,3.73,-24.61,-24.61,0,*7A
1504926450.63,51173,14.56,73442.5,3.71,-24.51,-24.67,0,*7C
1504926451.85,51174,14.56,73434.3,3.73,-24.67,-24.77,0,*7D
1504926453.08,51175,14.56,73436.5,3.71,-24.77,-24.97,0,*71
1504926454.32,51176,14.56,73454.8,3.73,-24.71,-24.77,0,*78
1504926455.57,51177,14.56,73456.3,3.71,-24.83,-24.97,0,*78
1504926456.82,51178,14.56,73468.5,3.71,-24.77,-24.83,0,*79
1504926458.07,51179,14.63,73476.3,3.71,-24.77,-24.83,0,*78
1504926459.32,51180,14.56,73480.8,3.71,-24.83,-24.93,0,*74
1504926460.57,51181,14.56,73478.0,3.71,-24.77,-24.83,0,*7F
1504926461.82,51182,14.56,73466.5,3.71,-24.77,-24.83,0,*7C
1504926463.08,51183,14.56,73462.3,3.71,-24.77,-24.83,0,*7D
1504926464.3,51184,14.56,73470.0,3.71,-24.77,-24.77,0,*71
1504926465.56,51185,14.56,73474.0,3.65,-24.67,-24.83,0,*7F
1504926466.81,51186,14.56,73474.5,3.71,-24.67,-24.77,0,*72
1504926468.04,51187,14.56,73480.8,3.71,-24.51,-24.51,0,*72
1504926469.27,51188,14.56,73478.3,3.65,-24.51,-24.67,0,*7D
1504926470.5,51189,14.56,73482.3,3.71,-24.61,-24.77,0,*7B
1504926471.79,51190,14.56,73480.0,3.67,-24.71,-24.83,0,*7E
1504926473.06,51191,14.56,73484.3,3.67,-24.67,-24.83,0,*78
1504926474.32,51192,14.56,73478.0,3.67,-24.57,-24.71,0,*75
1504926475.55,51193,14.56,73486.5,3.67,-24.57,-24.57,0,*70
1504926476.8,51194,14.56,73490.5,3.71,-24.47,-24.67,0,*72
1504926478.06,51195,14.56,73490.0,3.65,-24.67,-24.71,0,*73
1504926479.32,51196,14.56,73498.8,3.65,-24.71,-24.83,0,*7A
1504926480.58,51197,14.56,73506.5,3.65,-24.67,-24.87,0,*78
1504926481.84,51198,14.56,73492.8,3.65,-24.71,-24.83,0,*74
1504926483.1,51199,14.56,73474.3,3.67,-24.51,-24.67,0,*7F
1504926484.3,51200,14.56,73478.8,3.65,-24.35,-24.57,0,*7F
1504926485.51,51201,14.56,73476.3,3.65,-24.35,-24.47,0,*7F
1504926486.75,51202,14.56,73486.0,3.65,-24.21,-24.31,0,*78
1504926487.98,51203,14.56,73510.0,3.67,-24.35,-24.47,0,*7F
1504926489.21,51204,14.56,73492.8,3.65,-24.21,-24.31,0,*7E
1504926490.5,51205,14.56,73514.8,3.67,-24.15,-24.21,0,*7B
1504926491.78,51206,14.56,73490.8,3.67,-23.99,-24.21,0,*7B
1504926493.04,51207,14.56,73508.0,3.65,-24.15,-24.21,0,*7B
1504926494.24,51208,14.56,73500.3,3.65,-23.89,-24.05,0,*70
1504926495.5,51209,14.63,73498.8,3.67,-23.89,-23.85,0,*7C
1504926496.75,51210,14.56,73492.5,3.67,-23.89,-23.99,0,*79
1504926497.97,51211,14.56,73474.8,3.65,-24.05,-24.15,0,*7A
1504926499.26,51212,14.56,73474.5,3.67,-24.21,-24.21,0,*7A
1504926500.54,51213,14.56,73464.5,3.67,-23.99,-23.99,0,*7B
1504926501.78,51214,14.63,73462.8,3.67,-23.85,-23.89,0,*70
1504926503.04,51215,14.56,73446.0,3.67,-24.15,-24.05,0,*7C
1504926504.32,51216,14.56,73448.8,3.67,-24.15,-24.21,0,*79